Weather History for Ozark, AL

Change the Weather History Date:

Thursday, September 19, 2013

  Actual Average Record
Temperature  
Mean Temperature 76 °F -  
Max Temperature 88 °F 82 °F 96 °F (2010)
Min Temperature 65 °F 63 °F 59 °F (1996)
Cooling Degree Days 11    
Growing Degree Days 26 (Base 50)    
Moisture  
Dew Point 66 °F    
Average Humidity 73    
Maximum Humidity 95    
Minimum Humidity 49    
Precipitation  
Precipitation 0.00 in - - ()
Sea Level Pressure  
Sea Level Pressure 30.08 in    
Wind  
Wind Speed 6 mph (ENE)    
Max Wind Speed 10 mph    
Max Gust Speed -    
Visibility 10 miles    
Events      
Averages and records for this station are not official NWS values.
T = Trace of Precipitation, MM = Missing Value Source: NWS Daily Summary

Daily Weather History Graph

Daily Weather History Graph

Search for Another Location

Airport:

Trip Planner

Search our weather history database for the weather conditions in past years. The results will help you decide how hot, cold, wet, or windy it might be!

Date:

Astronomy

Sep. 19, 2013 Rise Set
Actual Time 6:29 AM CDT 6:43 PM CDT
Civil Twilight 6:05 AM CDT 7:07 PM CDT
Nautical Twilight 5:36 AM CDT 7:35 PM CDT
Astronomical Twilight 5:08 AM CDT 8:04 PM CDT
Moon 6:46 PM CDT (9/19) 6:34 AM CDT (9/19)
Length of Visible Light 13h 01m
Length of Day
12h 13m
Full, 100% of the Moon is Illuminated
Sep 19
Full
Sep 26
Last Quarter
Oct 4
New
Oct 11
First Quarter
Oct 18
Full

Hourly Weather History & Observations

Time (CDT) Temp. Heat Index Dew Point Humidity Pressure Visibility Wind Dir Wind Speed Gust Speed Precip Events Conditions
12:58 AM 70.3 °F - 65.3 °F 84% 30.10 in 10.0 mi NE 5.8 mph - N/A   Clear
1:58 AM 69.1 °F - 64.8 °F 86% 30.09 in 10.0 mi ENE 6.9 mph - N/A   Clear
2:58 AM 68.4 °F - 64.0 °F 86% 30.08 in 10.0 mi ENE 5.8 mph - N/A   Clear
3:58 AM 66.9 °F - 63.9 °F 90% 30.08 in 10.0 mi ENE 3.5 mph - N/A   Clear
4:58 AM 66.0 °F - 64.0 °F 93% 30.08 in 10.0 mi NE 6.9 mph - N/A   Clear
5:58 AM 65.1 °F - 63.5 °F 94% 30.09 in 10.0 mi NE 5.8 mph - N/A   Clear
6:58 AM 65.5 °F - 64.0 °F 95% 30.10 in 10.0 mi NE 6.9 mph - N/A   Clear
7:58 AM 68.7 °F - 64.8 °F 87% 30.12 in 10.0 mi NE 5.8 mph - N/A   Clear
8:58 AM 74.8 °F - 65.5 °F 73% 30.13 in 10.0 mi East 8.1 mph - N/A   Clear
9:58 AM 78.4 °F - 67.3 °F 68% 30.14 in 10.0 mi ENE 9.2 mph - N/A   Clear
10:55 AM 80.6 °F 83.2 °F 68.0 °F 65% 30.14 in 10.0 mi East 10.4 mph - N/A   Partly Cloudy
11:25 AM 82.4 °F 85.4 °F 68.0 °F 62% 30.13 in 10.0 mi East 8.1 mph - N/A   Mostly Cloudy
11:55 AM 82.4 °F 86.3 °F 69.8 °F 66% 30.12 in 10.0 mi ENE 8.1 mph - N/A   Scattered Clouds
12:55 PM 86.0 °F 89.4 °F 68.0 °F 55% 30.11 in 10.0 mi East 10.4 mph - N/A   Partly Cloudy
1:55 PM 86.0 °F 89.4 °F 68.0 °F 55% 30.09 in 10.0 mi ENE 6.9 mph - N/A   Clear
2:58 PM 87.3 °F 89.5 °F 65.8 °F 49% 30.06 in 10.0 mi East 8.1 mph - N/A   Partly Cloudy
3:58 PM 86.5 °F 89.0 °F 66.2 °F 51% 30.05 in 10.0 mi East 4.6 mph - N/A   Clear
4:58 PM 86.9 °F 88.9 °F 65.5 °F 49% 30.04 in 10.0 mi East 6.9 mph - N/A   Clear
5:58 PM 85.1 °F 86.9 °F 65.3 °F 51% 30.04 in 10.0 mi East 4.6 mph - N/A   Clear
6:58 PM 79.5 °F - 66.4 °F 64% 30.04 in 10.0 mi East 4.6 mph - N/A   Clear
7:58 PM 74.8 °F - 66.7 °F 76% 30.04 in 10.0 mi NE 6.9 mph - N/A   Clear
8:58 PM 73.8 °F - 66.7 °F 79% 30.06 in 10.0 mi East 2.3 mph - N/A   Clear
9:58 PM 72.1 °F - 64.9 °F 78% 30.06 in 10.0 mi ENE 4.6 mph - N/A   Clear
10:58 PM 71.4 °F - 65.3 °F 81% 30.06 in 10.0 mi NE 5.8 mph - N/A   Clear
11:58 PM 70.0 °F - 64.6 °F 83% 30.06 in 10.0 mi ENE 4.6 mph - N/A   Clear